DW6157 Weather Reports


Display with metric or nautical units.
time (UTC)temp
F
wind
direction
speed
MPH
gust
MPH
rain 1hr
in
rain 24hr
in
rain mn
in
humidity
%
barometer
mb
20260902023015 56 224 0.0 7.0 0.00 0.01 0.00 89 1006.9
20260902021511 57 210 2.0 8.0 0.00 0.01 0.00 89 1006.9
20260902020108 57 233 2.0 8.0 0.00 0.01 0.00 88 1006.9
20260902014502 57 229 0.0 6.0 0.00 0.01 0.00 87 1007.0
20260902013001 57 233 0.0 0.0 0.00 0.01 0.00 86 1007.2
20260902011600 57 220 0.0 4.0 0.00 0.01 0.00 85 1007.2
20260902010101 57 233 1.0 8.0 0.00 0.01 0.00 85 1007.3
20260902004600 57 210 2.0 8.0 0.00 0.01 0.00 85 1007.4
20260902003101 57 227 3.0 8.0 0.00 0.01 0.00 84 1007.4
20260902001558 57 225 4.0 10.0 0.00 0.01 0.00 85 1007.5
20260902000116 57 243 1.0 6.0 0.00 0.01 0.00 85 1007.6
20260901234556 57 242 1.0 5.0 0.00 0.01 0.00 86 1007.6
20260901233052 56 216 3.0 9.0 0.00 0.01 0.00 89 1007.5
20260901231552 56 242 0.0 4.0 0.00 0.01 0.00 92 1007.4
20260901230103 56 221 0.0 5.0 0.00 0.01 0.00 93 1007.2
20260901224548 56 210 0.0 3.0 0.00 0.01 0.00 94 1007.2
20260901223050 55 226 0.0 1.0 0.00 0.01 0.00 94 1007.2
20260901221545 55 233 0.0 0.0 0.00 0.01 0.00 94 1007.2
20260901220110 55 233 0.0 0.0 0.00 0.01 0.00 93 1007.1
20260901214543 56 233 0.0 0.0 0.00 0.01 0.01 93 1007.1
20260901213108 55 233 0.0 0.0 0.00 0.01 0.01 93 1007.2
20260901211541 55 233 0.0 0.0 0.00 0.01 0.01 93 1007.1
20260901210047 56 233 0.0 0.0 0.00 0.01 0.01 92 1007.1
20260901204541 57 233 0.0 0.0 0.00 0.01 0.01 91 1007.0
20260901203056 57 233 0.0 0.0 0.00 0.01 0.01 91 1007.1
20260901201539 58 233 0.0 0.0 0.00 0.01 0.01 91 1007.1
20260901200043 58 233 0.0 0.0 0.00 0.01 0.01 90 1007.1
20260901194542 59 216 0.0 0.0 0.00 0.01 0.01 89 1007.0
20260901193049 60 216 0.0 0.0 0.00 0.01 0.01 89 1007.1
20260901191541 61 216 0.0 0.0 0.00 0.01 0.01 88 1007.1
20260901190037 61 216 0.0 0.0 0.00 0.01 0.01 89 1007.3
20260901184636 61 216 0.0 0.0 0.00 0.01 0.01 89 1007.4
20260901183045 62 214 0.0 0.0 0.00 0.01 0.01 88 1007.4
20260901181535 62 210 1.0 5.0 0.00 0.01 0.01 87 1007.3
20260901180034 63 210 2.0 8.0 0.00 0.01 0.01 86 1007.4
20260901174534 63 274 1.0 9.0 0.00 0.01 0.01 85 1007.5
20260901173048 64 216 4.0 9.0 0.00 0.01 0.01 83 1007.6
20260901171536 64 196 2.0 10.0 0.00 0.01 0.01 83 1007.6
20260901170032 64 210 3.0 8.0 0.00 0.01 0.01 83 1007.7
20260901164531 64 272 3.0 8.0 0.00 0.01 0.01 84 1007.8
20260901163032 64 220 5.0 9.0 0.00 0.01 0.01 83 1007.8
20260901161534 65 214 4.0 8.0 0.00 0.01 0.01 82 1007.8
20260901160032 66 220 2.0 5.0 0.00 0.01 0.01 81 1007.9
20260901154528 67 210 2.0 8.0 0.00 0.01 0.01 78 1007.7
20260901153033 68 217 2.0 9.0 0.00 0.01 0.01 77 1007.8
20260901151527 68 210 0.0 9.0 0.00 0.01 0.01 78 1007.8
20260901150026 69 200 3.0 8.0 0.00 0.01 0.01 75 1007.8
20260901144525 69 195 1.0 8.0 0.00 0.01 0.01 74 1007.9
20260901143026 69 214 1.0 7.0 0.00 0.01 0.01 74 1007.9
20260901141524 69 229 1.0 9.0 0.00 0.01 0.01 74 1008.0
20260901140040 70 205 0.0 9.0 0.00 0.01 0.01 75 1008.2
20260901134524 70 238 3.0 8.0 0.00 0.01 0.01 74 1008.2
20260901133025 70 205 3.0 10.0 0.00 0.01 0.01 75 1008.3
20260901131527 70 195 2.0 10.0 0.00 0.01 0.01 76 1008.3
20260901130035 69 200 0.0 2.0 0.00 0.01 0.01 76 1008.4
20260901124520 69 200 0.0 4.0 0.00 0.01 0.01 77 1008.3
20260901123020 68 195 0.0 8.0 0.00 0.01 0.01 79 1008.3
20260901121514 67 95 0.0 4.0 0.00 0.01 0.01 78 1008.3
20260901120027 67 220 0.0 5.0 0.00 0.01 0.01 78 1008.3
20260901114512 67 89 0.0 1.0 0.00 0.01 0.01 78 1008.2
20260901113011 66 106 0.0 4.0 0.00 0.01 0.01 80 1008.2
20260901111511 65 200 0.0 5.0 0.00 0.01 0.01 82 1008.3
20260901110012 65 74 0.0 4.0 0.00 0.01 0.01 82 1008.3
20260901104511 65 122 0.0 0.0 0.00 0.01 0.01 82 1008.3
20260901103011 65 86 0.0 4.0 0.00 0.01 0.01 80 1008.3
20260901101508 66 101 0.0 4.0 0.00 0.01 0.01 77 1008.3
20260901100004 65 78 0.0 5.0 0.00 0.01 0.01 81 1008.2
20260901094502 63 55 0.0 0.0 0.00 0.01 0.01 84 1008.2
20260901093101 63 77 0.0 0.0 0.00 0.01 0.01 87 1008.2
20260901091558 63 57 0.0 5.0 0.00 0.01 0.01 86 1008.1
20260901090104 63 70 2.0 6.0 0.00 0.01 0.01 88 1008.0
20260901084554 62 72 0.0 7.0 0.00 0.01 0.01 91 1008.1
20260901083052 61 50 0.0 2.0 0.00 0.01 0.01 93 1008.1
20260901081558 61 337 0.0 3.0 0.00 0.01 0.01 96 1007.9
20260901080046 59 355 0.0 0.0 0.00 0.01 0.01 97 1007.9
20260901074544 58 327 0.0 2.0 0.00 0.01 0.01 97 1008.0
20260901073042 57 38 0.0 2.0 0.00 0.01 0.01 97 1008.0
20260901071540 57 339 0.0 0.0 0.00 0.01 0.01 97 1007.9
20260901070038 56 342 0.0 0.0 0.00 0.01 0.01 97 1007.8
20260901064537 56 335 0.0 0.0 0.00 0.01 0.01 97 1007.7
20260901063035 56 334 0.0 0.0 0.00 0.01 0.01 97 1007.7
20260901061532 55 335 0.0 0.0 0.00 0.01 0.01 97 1007.6
20260901060030 54 324 0.0 0.0 0.00 0.01 0.01 97 1007.6
20260901054527 54 315 0.0 0.0 0.00 0.01 0.01 97 1007.5
20260901053039 53 316 0.0 1.0 0.00 0.01 0.01 97 1007.4
20260901051523 52 310 0.0 0.0 0.01 0.01 0.01 97 1007.2
20260901050023 52 289 0.0 0.0 0.01 0.01 0.01 96 1007.2
20260901044521 51 287 0.0 0.0 0.01 0.01 0.01 96 1007.1
20260901043020 51 287 0.0 0.0 0.01 0.01 0.01 96 1006.9
20260901041519 51 287 0.0 0.0 0.00 0.00 0.00 96 1006.9
20260901040018 50 285 0.0 0.0 0.00 0.00 0.00 96 1006.9
20260901034524 50 285 0.0 0.0 0.00 0.00 0.00 96 1006.9
20260901033018 49 285 0.0 0.0 0.00 0.00 0.00 96 1006.7
20260901031521 49 285 0.0 0.0 0.00 0.00 0.00 95 1006.7
20260901030013 49 283 0.0 0.0 0.00 0.00 0.00 95 1006.7
20260901024513 49 283 0.0 0.0 0.00 0.00 0.00 95 1006.6